When you browse on this site, cookies collect data to enhance your experience and personalize the content and advertising you see.
Visit our Privacy Policy to learn more. By continuing to use the site, you agree to this use of cookies and data.
  • In United Kingdom
  • List of Countries
  • For 7 days
  • Water Temperature
  • Satellite Maps
  • Weather Map
  • Weather Widgets
  • user-avatar
    Login

    Hourly Weather Kudrovo

    Today, 24 January, Thursday

    Time Temperature Precipitation Wind Pressure Humidity
    00:00 -12°C° 0 mm 2 mps 748 mmHg 95%
    01:00 -12°C° 0 mm 2 mps 748 mmHg 95%
    02:00 -10°C° 0 mm 2 mps 748 mmHg 95%
    03:00 -9°C° 0.1 mm 2 mps 748 mmHg 95%
    04:00 -10°C° 0.1 mm 3 mps 748 mmHg 94%
    05:00 -9°C° 0.1 mm 3 mps 748 mmHg 94%
    06:00 -8°C° 0 mm 2 mps 748 mmHg 94%
    07:00 -8°C° 0 mm 2 mps 748 mmHg 94%
    08:00 -7°C° 0 mm 2 mps 748 mmHg 95%
    09:00 -7°C° 0 mm 2 mps 749 mmHg 94%
    10:00 -6°C° 0 mm 2 mps 749 mmHg 94%
    11:00 -5°C° 0 mm 2 mps 750 mmHg 94%
    12:00 -5°C° 0 mm 2 mps 750 mmHg 92%
    13:00 -5°C° 0 mm 2 mps 750 mmHg 91%
    14:00 -4°C° 0 mm 2 mps 751 mmHg 90%
    15:00 -6°C° 0 mm 2 mps 751 mmHg 91%
    16:00 -7°C° 0 mm 2 mps 751 mmHg 93%
    17:00 -7°C° 0 mm 1 mps 752 mmHg 95%
    18:00 -8°C° 0 mm 1 mps 752 mmHg 95%
    19:00 -8°C° 0 mm 1 mps 752 mmHg 96%
    20:00 -9°C° 0 mm 1 mps 753 mmHg 96%
    21:00 -10°C° 0 mm 1 mps 753 mmHg 96%
    22:00 -11°C° 0 mm 1 mps 753 mmHg 97%
    23:00 -11°C° 0 mm 1 mps 754 mmHg 97%

    Tomorrow, 25 January, Friday

    Time Temperature Precipitation Wind Pressure Humidity
    00:00 -11°C° 0 mm 1 mps 754 mmHg 97%
    01:00 -11°C° 0 mm 1 mps 754 mmHg 97%
    02:00 -11°C° 0 mm 1 mps 755 mmHg 97%
    03:00 -11°C° 0 mm 1 mps 755 mmHg 97%
    04:00 -11°C° 0 mm 1 mps 755 mmHg 97%
    05:00 -10°C° 0 mm 1 mps 755 mmHg 97%
    06:00 -10°C° 0 mm 1 mps 755 mmHg 97%
    07:00 -12°C° 0 mm 2 mps 755 mmHg 97%
    08:00 -12°C° 0 mm 2 mps 755 mmHg 97%
    09:00 -12°C° 0 mm 2 mps 755 mmHg 96%
    10:00 -10°C° 0 mm 2 mps 755 mmHg 95%
    11:00 -10°C° 0 mm 2 mps 755 mmHg 94%
    12:00 -10°C° 0 mm 2 mps 755 mmHg 94%
    13:00 -10°C° 0 mm 2 mps 755 mmHg 93%
    14:00 -12°C° 0 mm 3 mps 754 mmHg 92%
    15:00 -12°C° 0 mm 3 mps 754 mmHg 92%
    16:00 -13°C° 0 mm 3 mps 754 mmHg 93%
    17:00 -13°C° 0 mm 3 mps 753 mmHg 93%
    18:00 -14°C° 0.1 mm 3 mps 753 mmHg 93%
    19:00 -14°C° 0.1 mm 3 mps 752 mmHg 92%
    20:00 -14°C° 0.1 mm 3 mps 752 mmHg 92%
    21:00 -14°C° 0.3 mm 3 mps 751 mmHg 93%
    22:00 -14°C° 0.3 mm 3 mps 751 mmHg 93%
    23:00 -14°C° 0.3 mm 3 mps 750 mmHg 94%

    Day after tomorrow, 26 January, Saturday

    Time Temperature Precipitation Wind Pressure Humidity
    00:00 -14°C° 0.4 mm 3 mps 749 mmHg 94%
    01:00 -14°C° 0.4 mm 3 mps 748 mmHg 94%
    02:00 -14°C° 0.4 mm 3 mps 748 mmHg 94%
    03:00 -14°C° 0.3 mm 3 mps 747 mmHg 94%
    04:00 -14°C° 0.3 mm 3 mps 746 mmHg 94%
    05:00 -14°C° 0.3 mm 3 mps 745 mmHg 94%
    06:00 -14°C° 0.2 mm 3 mps 744 mmHg 94%
    07:00 -14°C° 0.2 mm 3 mps 744 mmHg 94%
    08:00 -13°C° 0.2 mm 2 mps 743 mmHg 94%
    09:00 -13°C° 0.1 mm 2 mps 743 mmHg 93%
    10:00 -13°C° 0.1 mm 2 mps 742 mmHg 92%
    11:00 -13°C° 0.1 mm 2 mps 742 mmHg 91%
    12:00 -12°C° 0.1 mm 2 mps 741 mmHg 90%
    13:00 -10°C° 0.1 mm 1 mps 741 mmHg 89%
    14:00 -10°C° 0.1 mm 1 mps 740 mmHg 88%
    15:00 -11°C° 0 mm 1 mps 740 mmHg 90%
    16:00 -11°C° 0 mm 1 mps 740 mmHg 92%
    17:00 -12°C° 0 mm 1 mps 740 mmHg 95%
    18:00 -12°C° 0 mm 1 mps 739 mmHg 96%
    19:00 -12°C° 0 mm 1 mps 739 mmHg 96%
    20:00 -12°C° 0 mm 1 mps 739 mmHg 97%
    21:00 -13°C° 0.1 mm 1 mps 739 mmHg 97%
    22:00 -13°C° 0.1 mm 1 mps 739 mmHg 97%
    23:00 -13°C° 0.1 mm 1 mps 739 mmHg 97%

    27 January, Sunday

    Time Temperature Precipitation Wind Pressure Humidity
    00:00 -13°C° 0 mm 1 mps 739 mmHg 97%
    01:00 -13°C° 0 mm 1 mps 739 mmHg 97%
    02:00 -13°C° 0 mm 1 mps 739 mmHg 97%
    03:00 -15°C° 0 mm 2 mps 739 mmHg 97%
    04:00 -16°C° 0 mm 2 mps 739 mmHg 97%
    05:00 -16°C° 0 mm 2 mps 739 mmHg 97%
    06:00 -17°C° 0 mm 2 mps 739 mmHg 97%
    07:00 -17°C° 0 mm 2 mps 740 mmHg 97%
    08:00 -18°C° 0 mm 2 mps 740 mmHg 97%
    09:00 -17°C° 0 mm 2 mps 740 mmHg 96%
    10:00 -17°C° 0 mm 2 mps 740 mmHg 95%
    11:00 -17°C° 0 mm 2 mps 740 mmHg 94%
    12:00 -16°C° 0 mm 2 mps 740 mmHg 94%
    13:00 -16°C° 0 mm 2 mps 741 mmHg 93%
    14:00 -15°C° 0 mm 2 mps 741 mmHg 92%
    15:00 -16°C° 0 mm 2 mps 741 mmHg 94%
    16:00 -17°C° 0 mm 2 mps 741 mmHg 95%
    17:00 -16°C° 0 mm 1 mps 741 mmHg 97%
    18:00 -16°C° 0 mm 1 mps 741 mmHg 97%
    19:00 -16°C° 0 mm 1 mps 742 mmHg 97%
    20:00 -15°C° 0 mm 1 mps 742 mmHg 97%
    21:00 -15°C° 0 mm 1 mps 742 mmHg 98%
    22:00 -15°C° 0 mm 1 mps 742 mmHg 98%
    23:00 -16°C° 0 mm 1 mps 742 mmHg 98%

    28 January, Monday

    Time Temperature Precipitation Wind Pressure Humidity
    00:00 -16°C° 0 mm 1 mps 743 mmHg 98%
    01:00 -16°C° 0 mm 0 mps 743 mmHg 98%
    02:00 -16°C° 0 mm 0 mps 743 mmHg 99%
    03:00 -16°C° 0 mm 0 mps 743 mmHg 99%
    04:00 -16°C° 0 mm 0 mps 743 mmHg 99%
    05:00 -16°C° 0 mm 0 mps 743 mmHg 99%
    06:00 -17°C° 0 mm 1 mps 743 mmHg 99%
    07:00 -17°C° 0 mm 1 mps 743 mmHg 98%
    08:00 -20°C° 0 mm 2 mps 743 mmHg 98%
    09:00 -19°C° 0 mm 2 mps 743 mmHg 97%
    10:00 -19°C° 0 mm 2 mps 743 mmHg 96%
    11:00 -19°C° 0 mm 3 mps 743 mmHg 94%
    12:00 -18°C° 0 mm 3 mps 743 mmHg 93%
    13:00 -18°C° 0 mm 3 mps 743 mmHg 91%
    14:00 -17°C° 0 mm 3 mps 742 mmHg 90%
    15:00 -18°C° 0 mm 4 mps 742 mmHg 90%
    16:00 -18°C° 0 mm 4 mps 742 mmHg 90%
    17:00 -17°C° 0 mm 4 mps 741 mmHg 90%
    18:00 -17°C° 0 mm 4 mps 741 mmHg 89%
    19:00 -18°C° 0 mm 5 mps 740 mmHg 87%
    20:00 -17°C° 0 mm 5 mps 740 mmHg 85%
    21:00 -17°C° 0.1 mm 5 mps 740 mmHg 87%
    22:00 -15°C° 0.1 mm 5 mps 739 mmHg 89%
    23:00 -15°C° 0.1 mm 5 mps 739 mmHg 90%

    29 January, Tuesday

    Time Temperature Precipitation Wind Pressure Humidity
    00:00 -14°C° 0.2 mm 5 mps 738 mmHg 91%
    01:00 -14°C° 0.2 mm 5 mps 738 mmHg 91%
    02:00 -12°C° 0.2 mm 4 mps 737 mmHg 91%
    03:00 -12°C° 0 mm 4 mps 737 mmHg 92%
    04:00 -11°C° 0 mm 4 mps 736 mmHg 92%
    05:00 -11°C° 0 mm 4 mps 735 mmHg 93%
    06:00 -11°C° 0.3 mm 4 mps 735 mmHg 93%
    07:00 -11°C° 0.3 mm 4 mps 734 mmHg 94%
    08:00 -10°C° 0.3 mm 4 mps 734 mmHg 95%
    09:00 -9°C° 0.6 mm 4 mps 733 mmHg 95%
    10:00 -8°C° 0.6 mm 4 mps 733 mmHg 94%
    11:00 -7°C° 0.6 mm 4 mps 733 mmHg 94%
    12:00 -4°C° 0.3 mm 4 mps 732 mmHg 94%
    13:00 -2°C° 0.3 mm 3 mps 732 mmHg 94%
    14:00 -1°C° 0.3 mm 3 mps 732 mmHg 95%
    15:00 -1°C° 0.2 mm 3 mps 732 mmHg 94%
    16:00 -1°C° 0.2 mm 3 mps 731 mmHg 94%
    17:00 -1°C° 0.2 mm 2 mps 731 mmHg 94%
    18:00 -1°C° 0.6 mm 3 mps 732 mmHg 94%
    19:00 -1°C° 0.6 mm 3 mps 732 mmHg 94%
    20:00 -1°C° 0.6 mm 3 mps 732 mmHg 94%
    21:00 -1°C° 0.4 mm 3 mps 733 mmHg 92%
    22:00 -2°C° 0.4 mm 4 mps 733 mmHg 91%
    23:00 -2°C° 0.4 mm 5 mps 734 mmHg 89%
    Show more